sat.trackr.live / text

‹ back to catalog

ICEYE-X58

NORAD 66751 · 2025-276CP

PAYLOAD ACTIVE UNKNOWN

§ Identity

Operator
Country
FIN
Launch date
2025-11-28
Launch site
AFWTR
Launch vehicle
Mass (kg)
RCS (m²)

External: N2YO · Heavens-Above · Gunter

§ Orbital elements

Epoch: 2026-05-25T04:17:36.868416Z

Period
94.88 min
Inclination
97.4212°
Eccentricity
0.0004710
Mean motion
15.17724569 rev/d
Perigee alt
509.5 km
Apogee alt
516.0 km
Semi-major
6,890.9 km
B*
5.6612e-5
RAAN
219.0774°
Arg perigee
70.4020°
Mean anomaly
289.7722°
Rev number
2,692

§ Raw data

ICEYE-X581 66751U 25276CP  26145.17889894  .00001076  00000+0  56612-4 0  99962 66751  97.4212 219.0774 0004710  70.4020 289.7722 15.17724569 26920

JSON: /api/v1/satellites/66751 · /tle

For live sub-satellite position, see the globe view (requires WebGL).

§ Visibility from observer

Set your observer location to see the next 7 days of passes ≥ 10°. The values pass through the URL so the page stays shareable.

No JS? Fill the form by hand. The geolocation button needs JavaScript.